Location: Unspecified
(0.0000°N, 0.0000°E)
Time: 21:38:33
(UTC+00:00)

Transit 2A - Pass Details

Date: 22 April 2024
Orbit: 594 x 958 km, 66.7° (Epoch: 22 May)

Event Time Altitude Azimuth Distance (km) Brightness Sun altitude
Rises 15:56:19 0° 346° (NNW) 3,523 9.8 29.7°
Reaches altitude 10° 15:58:48 10° 349° (N) 2,617 9.2 29.1°
Maximum altitude 16:04:56 65° 71° (ENE) 1,037 6.9 27.6°
Drops below altitude 10° 16:11:12 10° 152° (SSE) 2,682 8.5 26.1°
Sets 16:13:46 0° 154° (SSE) 3,615 9.1 25.5°
